Current weather by "City, St" or "zip code"  
 

Current Conditions: Battle Creek Executive Airport, MI

Fair


37.0 F

Last Updated on Apr 23 2021, 5:53 am EDT
Humidity: 70%
Wind Speed: SW 9.2 mph
Barometer 30.04 in
Dewpoint: 28.0 F
Visibility: 10.00 mi
Precip: --
Heat Index: NA
Wind Chill: 30 F
Current conditions at:

Battle Creek Executive Airport, MI (KBTL)

Lat: 42.31197 Lon: 85.24144

Local Radar Image active severe weather and emergency alerts image image weather storm and storm spotter reports image weather observation monitoring service image
Local
Radar
Active
Alerts
Storm Reports Obs
Monitoring

Sign-up For Email & Text Message Weather Alert Notification Services



Advertise Here

Observation History for Battle Creek Executive Airport, MI


Time Wind
(mph)
Vis
(mi)
Weather Precip (in) Temperature (F) Relative
Humidity
Wind
Chill
(F)
Heat
Index
(F)
Pressure
Air Dwpt altimeter
(in)
sea level
(mb)
Rmks
5:53 am EDT SW 9.2 10.00 Fair -- 37.0 28.0 70% 30 NA 30.04 1017.7
4:53 am EDT SW 10.4 10.00 Fair -- 39.0 28.0 65% 32 NA 30.03 1017.4
3:53 am EDT SW 9.2 10.00 Fair -- 39.0 28.0 65% 33 NA 30.02 1017.2
2:53 am EDT SW 5.8 10.00 Fair -- 36.0 26.1 67% 31 NA 30.02 1017.3
1:53 am EDT S 4.6 10.00 Fair -- 36.0 25.0 64% 32 NA 30.03 1017.6
12:53 am EDT SE 5.8 10.00 Fair -- 39.0 25.0 57% 35 NA 30.04 1017.9
11:53 pm EDT SE 5.8 10.00 Fair -- 38.0 27.0 65% 34 NA 30.05 1018.2
10:53 pm EDT N 0.0 10.00 Fair -- 37.0 26.1 65% NA NA 30.04 1018.1
9:53 pm EDT S 4.6 10.00 Fair -- 40.0 25.0 55% 37 NA 30.04 1018.0
8:53 pm EDT N 0.0 10.00 Fair -- 45.0 23.0 42% NA NA 30.03 1017.7
7:53 pm EDT W 6.9 10.00 Fair -- 47.0 23.0 39% 44 NA 30.03 1017.6
6:53 pm EDT W 13.8 G 19.6 10.00 Fair -- 48.0 21.9 36% 42 NA 30.05 1018.1
5:53 pm EDT W 15.0 10.00 Fair -- 48.0 18.0 30% 42 NA 30.04 1018.1
4:53 pm EDT W 15.0 G 27.6 10.00 Fair -- 48.0 16.0 28% 42 NA 30.05 1018.2
3:53 pm EDT W 13.8 G 26.5 10.00 Fair -- 48.0 17.1 29% 42 NA 30.05 1018.4
2:53 pm EDT W 18.4 G 26.5 10.00 Fair -- 47.0 18.0 31% 40 NA 30.06 1018.8
1:53 pm EDT NW 15.0 G 23.0 10.00 A Few Clouds -- 47.0 19.0 33% 41 NA 30.07 1018.9
12:53 pm EDT SW 15.0 G 21.9 10.00 Overcast -- 45.0 23.0 42% 38 NA 30.08 1019.3
11:53 am EDT W 10.4 10.00 Mostly Cloudy -- 43.0 28.0 56% 37 NA 30.09 1019.7
10:53 am EDT W 8.1 10.00 Overcast -- 39.0 28.9 67% 33 NA 30.09 1019.8
9:53 am EDT W 10.4 10.00 Mostly Cloudy -- 40.0 28.0 63% 33 NA 30.08 1019.4
8:53 am EDT W 8.1 10.00 Overcast -- 36.0 27.0 70% 30 NA 30.08 1019.5
7:53 am EDT SW 5.8 10.00 Partly Cloudy -- 30.0 23.0 75% 24 NA 30.07 1019.0
6:53 am EDT W 3.5 10.00 Overcast -- 30.0 23.0 75% NA NA 30.06 1018.6

Regional Weather Observation


Kalamazoo/Battle Creek International Airport, MI (KAZO)

Fair
42.0 F

Grand Rapids, Gerald R. Ford International Airport, MI (KGRR)

A Few Clouds
42.0 F

Ionia County Airport, MI (KY70)

Fair
39.0 F

Brooks Field Airport, MI (KRMY)

Fair
37.0 F

Charlotte, Fitch H Beach Airport, MI (KFPK)

Fair
39.0 F

Holland - West Michigan Regional Airport, MI (KBIV)

Fair
45.0 F

Advertise Here


Advertise Here